Skip Page Navigation
NASA JPL Caltech
NASA Logo - Jet Propulsion Laboratory + View the NASA Portal
+ Center for Near-Earth Object Studies
JPL Home Earth Solar System Stars & Galaxies Technology
JPL Solar System Dynamics
BODIES ORBITS EPHEMERIDES TOOLS PHYSICAL DATA DISCOVERY FAQ SITE MAP
IMPORTANT: The SSD Announcement email list is now available. Major changes are coming in the near future, including possible hostname and/or URL changes. To be notified of such changes, subscribe to this email list.

Please visit this page for more details.


JPL Small-Body Database Browser
Search: [ help ]  
168698 Robpickman (2000 GX140)
Classification: Main-belt Asteroid          SPK-ID: 2168698
Ephemeris | Orbit Diagram | Orbital Elements | Mission Design | Physical Parameters | Discovery Circumstances | Close-Approach Data ]

[ show orbit diagram ]
Orbital Elements at Epoch 2458600.5 (2019-Apr-27.0) TDB
Reference: JPL 14 (heliocentric ecliptic J2000)
 Element Value Uncertainty (1-sigma)   Units 
e .09600743540399043 6.0959e-08  
a 2.753795874758053 2.8083e-08 au
q 2.489410995196444 1.6844e-07 au
i 3.633793019449717 6.4654e-06 deg
node 237.1242779962377 9.6581e-05 deg
peri 304.78877569 0.00010119 deg
M 69.32801433540442 3.1359e-05 deg
tp 2458279.058234225115
(2018-Jun-09.55823423)
0.00014431 TDB
period 1669.152604301016
4.57
2.5533e-05
6.991e-08
d
yr
n .2156783023148178 3.2993e-09 deg/d
Q 3.018180754319662 3.078e-08 au
  Orbit Determination Parameters
   # obs. used (total)      247  
   data-arc span      6536 days (17.89 yr)  
   first obs. used      2000-04-05  
   last obs. used      2018-02-26  
   planetary ephem.      DE431  
   SB-pert. ephem.      SB431-N16  
   condition code      0  
   norm. resid. RMS      .53505  
   source      ORB  
   producer      Otto Matic  
   solution date      2018-Mar-06 01:09:42  

Additional Information
 Earth MOID = 1.49433 au 
 Jupiter MOID = 1.95949 au 
 T_jup = 3.335 
[ show covariance matrix ]

Ephemeris | Orbit Diagram | Orbital Elements | Mission Design | Physical Parameters | Discovery Circumstances | Close-Approach Data ]

Physical Parameter Table
Parameter Symbol Value Units Sigma Reference Notes
absolute magnitude H 16.1   n/a MPO436842  

168698 Robpickman           Discovered 2000 Apr. 5 by L. H. Wasserman at the Anderson Mesa Station of the Lowell Observatory.
Robert D. Pickman (b. 1945), now retired, worked as an engineer for IBM and also for NASA developing ground-based systems to support the space shuttle. He is currently an active amateur astronomer and is a long-time friend of the discoverer.
NOTE: some special characters may not display properly (any characters within {} are an attempt to place the proper accent above a character)
Reference: 20111210/MPCPages.arcLast Updated: 2011-12-12

[ show close-approach data ]
Alternate Designations
 2000 GX140 = 2004 BU28 
Ephemeris | Orbit Diagram | Orbital Elements | Mission Design | Physical Parameters | Discovery Circumstances | Close-Approach Data ]
ABOUT SSD CREDITS/AWARDS PRIVACY/COPYRIGHT GLOSSARY LINKS
FirstGov
(server date/time)  
NASA Home Page
Site Manager:   Ryan S. Park
Webmaster  Alan B. Chamberlin